FDX122 GOBD-GVAC

Flight info

Callsign FDX122
Flight time 1h 6m
Altitude 32000
Route LIGOV1B LIGOV DCT LUMPO UR976 UNAMA DCT POLMO BIRAP1F
Aircraft B738/M-SDE2E3FGHIRWXY/LB1

Departure

Time 2026-04-21 05:44
Airport Blaise Diagne International Airport (GOBD)

Arrival

Time 2026-04-21 06:50
Airport Amílcar Cabral International Airport (GVAC)
Time Latitude Longitude Altitude Speed Heading
2026-04-21 05:28 14.65587 -17.07720 279 ft 0 kts 269°
2026-04-21 05:38 14.65587 -17.07719 279 ft 2 kts 269°
2026-04-21 05:38 14.65587 -17.07707 279 ft 2 kts 269°
2026-04-21 05:39 14.65587 -17.07695 279 ft 2 kts 272°
2026-04-21 05:39 14.65585 -17.07681 279 ft 2 kts 289°
2026-04-21 05:39 14.65579 -17.07669 281 ft 2 kts 306°
2026-04-21 05:39 14.65570 -17.07658 284 ft 2 kts 323°
2026-04-21 05:40 14.65559 -17.07651 286 ft 2 kts 340°
2026-04-21 05:40 14.65545 -17.07647 284 ft 2 kts 357°
2026-04-21 05:40 14.65544 -17.07647 284 ft 0 kts 359°
2026-04-21 05:41 14.65545 -17.07647 284 ft 0 kts 359°
2026-04-21 05:41 14.65548 -17.07617 280 ft 8 kts 118°
2026-04-21 05:42 14.65523 -17.07561 280 ft 9 kts 93°
2026-04-21 05:42 14.65524 -17.07482 280 ft 12 kts 89°
2026-04-21 05:42 14.65526 -17.07400 280 ft 11 kts 89°
2026-04-21 05:42 14.65528 -17.07318 280 ft 12 kts 81°
2026-04-21 05:43 14.65592 -17.07268 279 ft 12 kts 11°
2026-04-21 05:43 14.65714 -17.07268 278 ft 38 kts 360°
2026-04-21 05:43 14.66233 -17.07275 275 ft 108 kts 359°
2026-04-21 05:43 14.67182 -17.07288 335 ft 157 kts 357°
2026-04-21 05:44 14.68281 -17.07312 1053 ft 159 kts 358°
2026-04-21 05:44 14.69361 -17.07319 1930 ft 157 kts 359°
2026-04-21 05:44 14.70534 -17.07326 2354 ft 183 kts 358°
2026-04-21 05:44 14.71914 -17.07336 2577 ft 212 kts 358°
2026-04-21 05:45 14.73465 -17.07347 2893 ft 228 kts 358°
2026-04-21 05:45 14.75095 -17.07360 3347 ft 245 kts 358°
2026-04-21 05:45 14.76872 -17.07375 3793 ft 261 kts 359°
2026-04-21 05:45 14.78717 -17.07392 4497 ft 269 kts 359°
2026-04-21 05:46 14.80618 -17.07410 5168 ft 277 kts 359°
2026-04-21 05:46 14.82556 -17.07428 5930 ft 280 kts 359°
2026-04-21 05:46 14.84517 -17.07447 6675 ft 284 kts 359°
2026-04-21 05:46 14.86513 -17.07465 7370 ft 289 kts 359°
2026-04-21 05:47 14.88535 -17.07545 8081 ft 292 kts 348°
2026-04-21 05:47 14.90404 -17.08339 8765 ft 294 kts 321°
2026-04-21 05:47 14.91731 -17.09926 9482 ft 294 kts 296°
2026-04-21 05:47 14.92421 -17.11912 10177 ft 296 kts 283°
2026-04-21 05:48 14.92956 -17.14039 10420 ft 317 kts 281°
2026-04-21 05:48 14.93489 -17.16330 10610 ft 338 kts 282°
2026-04-21 05:48 14.94042 -17.18732 10787 ft 357 kts 281°
2026-04-21 05:48 14.94635 -17.21280 11093 ft 369 kts 282°
2026-04-21 05:49 14.95248 -17.23880 11645 ft 374 kts 282°
2026-04-21 05:49 14.95873 -17.26502 12259 ft 375 kts 282°
2026-04-21 05:49 14.96503 -17.29120 12909 ft 377 kts 282°
2026-04-21 05:49 14.97143 -17.31764 13473 ft 380 kts 282°
2026-04-21 05:50 14.97788 -17.34428 14041 ft 382 kts 282°
2026-04-21 05:50 14.98435 -17.37095 14618 ft 383 kts 282°
2026-04-21 05:50 14.99084 -17.39774 15150 ft 385 kts 282°
2026-04-21 05:50 14.99737 -17.42470 15696 ft 387 kts 282°
2026-04-21 05:51 15.00392 -17.45176 16243 ft 388 kts 282°
2026-04-21 05:51 15.01041 -17.47856 16763 ft 390 kts 282°
2026-04-21 05:51 15.01702 -17.50592 17268 ft 392 kts 282°
2026-04-21 05:51 15.02366 -17.53339 17782 ft 394 kts 282°
2026-04-21 05:52 15.03033 -17.56098 18274 ft 396 kts 282°
2026-04-21 05:52 15.03701 -17.58867 18694 ft 398 kts 282°
2026-04-21 05:52 15.04373 -17.61649 19134 ft 399 kts 282°
2026-04-21 05:52 15.05045 -17.64438 19554 ft 400 kts 282°
2026-04-21 05:53 15.05720 -17.67236 19969 ft 402 kts 282°
2026-04-21 05:53 15.06397 -17.70048 20357 ft 404 kts 283°
2026-04-21 05:53 15.07077 -17.72872 20745 ft 405 kts 283°
2026-04-21 05:53 15.07760 -17.75707 21120 ft 407 kts 283°
2026-04-21 05:54 15.08213 -17.77593 21367 ft 408 kts 283°
2026-04-21 05:54 15.08900 -17.80450 21732 ft 409 kts 283°
2026-04-21 05:54 15.09589 -17.83317 22089 ft 411 kts 283°
2026-04-21 05:54 15.10278 -17.86188 22429 ft 412 kts 283°
2026-04-21 05:55 15.10970 -17.89072 22761 ft 414 kts 283°
2026-04-21 05:55 15.11664 -17.91966 23096 ft 415 kts 284°
2026-04-21 05:55 15.12361 -17.94873 23413 ft 416 kts 284°
2026-04-21 05:55 15.13059 -17.97785 23671 ft 418 kts 284°
2026-04-21 05:56 15.13758 -18.00705 23928 ft 418 kts 284°
2026-04-21 05:56 15.14458 -18.03632 24190 ft 419 kts 284°
2026-04-21 05:56 15.15158 -18.06562 24439 ft 419 kts 284°
2026-04-21 05:56 15.15850 -18.09459 24678 ft 420 kts 284°
2026-04-21 05:57 15.16554 -18.12404 24908 ft 421 kts 284°
2026-04-21 05:57 15.17258 -18.15354 25134 ft 422 kts 284°
2026-04-21 05:57 15.17963 -18.18309 25361 ft 423 kts 284°
2026-04-21 05:57 15.18668 -18.21267 25580 ft 424 kts 284°
2026-04-21 05:58 15.19374 -18.24232 25807 ft 424 kts 284°
2026-04-21 05:58 15.20081 -18.27202 26008 ft 425 kts 284°
2026-04-21 05:58 15.20789 -18.30177 26219 ft 426 kts 284°
2026-04-21 05:58 15.21498 -18.33159 26419 ft 427 kts 284°
2026-04-21 05:59 15.22208 -18.36149 26614 ft 428 kts 284°
2026-04-21 05:59 15.22918 -18.39139 26812 ft 428 kts 284°
2026-04-21 05:59 15.23621 -18.42101 26988 ft 429 kts 284°
2026-04-21 06:00 15.25049 -18.48122 27346 ft 431 kts 284°
2026-04-21 06:00 15.25764 -18.51141 27517 ft 432 kts 284°
2026-04-21 06:00 15.26481 -18.54170 27683 ft 432 kts 284°
2026-04-21 06:00 15.27198 -18.57199 27872 ft 433 kts 284°
2026-04-21 06:01 15.27912 -18.60221 28105 ft 431 kts 285°
2026-04-21 06:01 15.28623 -18.63232 28371 ft 429 kts 285°
2026-04-21 06:01 15.29322 -18.66193 28617 ft 427 kts 285°
2026-04-21 06:01 15.30028 -18.69184 28808 ft 426 kts 285°
2026-04-21 06:02 15.30731 -18.72166 28988 ft 425 kts 285°
2026-04-21 06:02 15.31434 -18.75146 29147 ft 425 kts 285°
2026-04-21 06:02 15.32135 -18.78126 29327 ft 425 kts 285°
2026-04-21 06:02 15.32834 -18.81095 29537 ft 424 kts 285°
2026-04-21 06:03 15.33532 -18.84060 29763 ft 422 kts 285°
2026-04-21 06:03 15.34226 -18.87013 29968 ft 421 kts 285°
2026-04-21 06:03 15.34918 -18.89961 30135 ft 421 kts 285°
2026-04-21 06:03 15.35610 -18.92907 30296 ft 421 kts 285°
2026-04-21 06:04 15.36301 -18.95852 30491 ft 420 kts 285°
2026-04-21 06:04 15.36990 -18.98792 30764 ft 418 kts 284°
2026-04-21 06:04 15.37667 -19.01679 31039 ft 417 kts 284°
2026-04-21 06:04 15.38350 -19.04596 31269 ft 416 kts 284°
2026-04-21 06:05 15.39032 -19.07511 31495 ft 416 kts 284°
2026-04-21 06:05 15.39712 -19.10415 31730 ft 415 kts 284°
2026-04-21 06:05 15.40391 -19.13321 31982 ft 414 kts 284°
2026-04-21 06:05 15.41066 -19.16212 32248 ft 412 kts 284°
2026-04-21 06:06 15.41741 -19.19103 32514 ft 411 kts 284°
2026-04-21 06:06 15.42413 -19.21982 32761 ft 411 kts 284°
2026-04-21 06:06 15.43084 -19.24860 33004 ft 410 kts 283°
2026-04-21 06:06 15.43754 -19.27734 33253 ft 409 kts 283°
2026-04-21 06:07 15.44414 -19.30568 33533 ft 408 kts 283°
2026-04-21 06:07 15.45079 -19.33425 33809 ft 407 kts 283°
2026-04-21 06:07 15.45741 -19.36273 34036 ft 406 kts 283°
2026-04-21 06:07 15.46403 -19.39119 34232 ft 406 kts 283°
2026-04-21 06:08 15.47141 -19.41944 34414 ft 407 kts 286°
2026-04-21 06:08 15.48072 -19.44712 34597 ft 407 kts 288°
2026-04-21 06:08 15.49088 -19.47460 34801 ft 407 kts 289°
2026-04-21 06:08 15.50120 -19.50192 34987 ft 407 kts 289°
2026-04-21 06:09 15.51147 -19.52935 35165 ft 407 kts 288°
2026-04-21 06:09 15.52160 -19.55680 35347 ft 407 kts 288°
2026-04-21 06:09 15.53158 -19.58423 35537 ft 407 kts 288°
2026-04-21 06:09 15.54149 -19.61171 35736 ft 406 kts 288°
2026-04-21 06:10 15.55122 -19.63885 35894 ft 407 kts 287°
2026-04-21 06:10 15.56117 -19.66668 36062 ft 407 kts 287°
2026-04-21 06:10 15.57089 -19.69386 36253 ft 406 kts 287°
2026-04-21 06:10 15.58068 -19.72128 36445 ft 406 kts 287°
2026-04-21 06:11 15.59047 -19.74872 36615 ft 406 kts 287°
2026-04-21 06:11 15.60028 -19.77620 36763 ft 406 kts 287°
2026-04-21 06:11 15.61007 -19.80363 36936 ft 406 kts 287°
2026-04-21 06:11 15.61986 -19.83108 37133 ft 405 kts 286°
2026-04-21 06:12 15.62963 -19.85848 37320 ft 404 kts 286°
2026-04-21 06:12 15.63937 -19.88581 37470 ft 404 kts 286°
2026-04-21 06:12 15.64913 -19.91324 37625 ft 404 kts 286°
2026-04-21 06:12 15.65886 -19.94055 37792 ft 404 kts 286°
2026-04-21 06:13 15.66858 -19.96787 37910 ft 404 kts 286°
2026-04-21 06:13 15.68818 -20.02264 37929 ft 405 kts 286°
2026-04-21 06:14 15.70830 -20.07728 37930 ft 405 kts 287°
2026-04-21 06:14 15.72833 -20.13144 37935 ft 404 kts 287°
2026-04-21 06:15 15.74838 -20.18584 37936 ft 403 kts 287°
2026-04-21 06:15 15.76837 -20.24024 37934 ft 403 kts 286°
2026-04-21 06:16 15.78829 -20.29454 37940 ft 402 kts 286°
2026-04-21 06:16 15.80817 -20.34879 37937 ft 402 kts 286°
2026-04-21 06:17 15.82804 -20.40304 37932 ft 401 kts 286°
2026-04-21 06:17 15.84786 -20.45722 37937 ft 401 kts 286°
2026-04-21 06:18 15.86753 -20.51102 37939 ft 401 kts 286°
2026-04-21 06:18 15.88729 -20.56513 37940 ft 401 kts 286°
2026-04-21 06:19 15.90705 -20.61927 37943 ft 400 kts 286°
2026-04-21 06:19 15.92675 -20.67340 37938 ft 400 kts 286°
2026-04-21 06:20 15.94635 -20.72757 37940 ft 400 kts 286°
2026-04-21 06:20 15.96581 -20.78142 37946 ft 400 kts 286°
2026-04-21 06:21 15.98539 -20.83563 37946 ft 400 kts 286°
2026-04-21 06:21 16.00498 -20.88990 37949 ft 401 kts 286°
2026-04-21 06:22 16.02454 -20.94414 37946 ft 401 kts 286°
2026-04-21 06:22 16.04409 -20.99838 37899 ft 402 kts 286°
2026-04-21 06:22 16.05400 -21.02597 37390 ft 407 kts 286°
2026-04-21 06:23 16.06391 -21.05350 36799 ft 405 kts 287°
2026-04-21 06:23 16.07378 -21.08091 36232 ft 404 kts 287°
2026-04-21 06:23 16.08350 -21.10792 35619 ft 404 kts 287°
2026-04-21 06:23 16.09336 -21.13536 34964 ft 405 kts 288°
2026-04-21 06:24 16.10326 -21.16292 34265 ft 407 kts 288°
2026-04-21 06:24 16.11319 -21.19058 33528 ft 409 kts 289°
2026-04-21 06:24 16.12310 -21.21819 33047 ft 405 kts 289°
2026-04-21 06:24 16.13290 -21.24548 32518 ft 401 kts 289°
2026-04-21 06:25 16.14263 -21.27260 32039 ft 397 kts 289°
2026-04-21 06:25 16.15226 -21.29946 31560 ft 394 kts 290°
2026-04-21 06:25 16.16177 -21.32601 31099 ft 390 kts 290°
2026-04-21 06:25 16.17119 -21.35230 30639 ft 387 kts 290°
2026-04-21 06:26 16.18054 -21.37845 30180 ft 384 kts 290°
2026-04-21 06:26 16.18983 -21.40441 29647 ft 381 kts 291°
2026-04-21 06:26 16.19902 -21.43011 29145 ft 377 kts 291°
2026-04-21 06:26 16.20814 -21.45561 28650 ft 374 kts 291°
2026-04-21 06:27 16.21703 -21.48050 28185 ft 370 kts 291°
2026-04-21 06:27 16.22597 -21.50552 27720 ft 367 kts 291°
2026-04-21 06:27 16.23481 -21.53028 27264 ft 364 kts 291°
2026-04-21 06:27 16.24358 -21.55484 26810 ft 361 kts 291°
2026-04-21 06:28 16.25226 -21.57919 26366 ft 358 kts 291°
2026-04-21 06:28 16.26091 -21.60345 25916 ft 356 kts 291°
2026-04-21 06:28 16.26949 -21.62751 25465 ft 354 kts 290°
2026-04-21 06:28 16.27572 -21.65222 25070 ft 352 kts 278°
2026-04-21 06:29 16.27740 -21.67742 24760 ft 348 kts 275°
2026-04-21 06:29 16.27830 -21.70255 24384 ft 346 kts 274°
2026-04-21 06:29 16.27900 -21.72747 23968 ft 344 kts 274°
2026-04-21 06:29 16.27972 -21.75207 23539 ft 344 kts 275°
2026-04-21 06:30 16.28052 -21.77699 23027 ft 344 kts 274°
2026-04-21 06:30 16.28137 -21.80177 22571 ft 342 kts 274°
2026-04-21 06:30 16.28226 -21.82640 22126 ft 340 kts 274°
2026-04-21 06:30 16.28317 -21.85089 21699 ft 338 kts 274°
2026-04-21 06:31 16.28409 -21.87527 21268 ft 336 kts 274°
2026-04-21 06:31 16.28501 -21.89950 20847 ft 334 kts 273°
2026-04-21 06:31 16.28593 -21.92361 20424 ft 333 kts 273°
2026-04-21 06:31 16.28685 -21.94763 20012 ft 331 kts 273°
2026-04-21 06:32 16.28776 -21.97158 19581 ft 331 kts 272°
2026-04-21 06:32 16.28867 -21.99548 19162 ft 330 kts 272°
2026-04-21 06:32 16.28958 -22.01936 18732 ft 330 kts 272°
2026-04-21 06:32 16.29048 -22.04322 18310 ft 330 kts 271°
2026-04-21 06:33 16.29137 -22.06682 17849 ft 329 kts 271°
2026-04-21 06:33 16.29226 -22.09058 17418 ft 328 kts 271°
2026-04-21 06:33 16.29314 -22.11422 16996 ft 326 kts 271°
2026-04-21 06:33 16.29402 -22.13773 16582 ft 324 kts 271°
2026-04-21 06:34 16.29489 -22.16106 16180 ft 322 kts 271°
2026-04-21 06:34 16.29575 -22.18433 15772 ft 320 kts 271°
2026-04-21 06:34 16.29660 -22.20740 15373 ft 318 kts 271°
2026-04-21 06:34 16.29745 -22.23043 14977 ft 317 kts 271°
2026-04-21 06:35 16.29830 -22.25332 14587 ft 316 kts 271°
2026-04-21 06:35 16.29913 -22.27614 14195 ft 315 kts 271°
2026-04-21 06:35 16.29997 -22.29886 13793 ft 314 kts 270°
2026-04-21 06:35 16.30079 -22.32155 13357 ft 313 kts 270°
2026-04-21 06:36 16.30160 -22.34383 12951 ft 311 kts 270°
2026-04-21 06:36 16.30336 -22.36622 12541 ft 311 kts 278°
2026-04-21 06:36 16.30806 -22.38813 12161 ft 310 kts 282°
2026-04-21 06:36 16.31369 -22.40974 11773 ft 308 kts 283°
2026-04-21 06:37 16.31943 -22.43120 11384 ft 307 kts 283°
2026-04-21 06:37 16.32506 -22.45259 11004 ft 305 kts 282°
2026-04-21 06:37 16.33056 -22.47396 10618 ft 304 kts 282°
2026-04-21 06:37 16.33585 -22.49487 10487 ft 294 kts 282°
2026-04-21 06:38 16.34089 -22.51496 10349 ft 286 kts 282°
2026-04-21 06:38 16.34579 -22.53468 10224 ft 277 kts 282°
2026-04-21 06:38 16.35053 -22.55380 10105 ft 269 kts 282°
2026-04-21 06:38 16.35510 -22.57232 9992 ft 260 kts 282°
2026-04-21 06:39 16.35957 -22.59045 9743 ft 258 kts 282°
2026-04-21 06:39 16.36400 -22.60847 9466 ft 256 kts 282°
2026-04-21 06:39 16.36840 -22.62636 9192 ft 254 kts 282°
2026-04-21 06:39 16.37277 -22.64411 8917 ft 252 kts 282°
2026-04-21 06:40 16.37712 -22.66179 8641 ft 251 kts 282°
2026-04-21 06:40 16.38144 -22.67937 8374 ft 250 kts 282°
2026-04-21 06:40 16.38573 -22.69687 8108 ft 248 kts 282°
2026-04-21 06:40 16.38997 -22.71424 7835 ft 247 kts 282°
2026-04-21 06:41 16.39420 -22.73155 7560 ft 246 kts 282°
2026-04-21 06:41 16.39843 -22.74890 7302 ft 248 kts 282°
2026-04-21 06:41 16.40262 -22.76605 7054 ft 247 kts 282°
2026-04-21 06:41 16.40685 -22.78340 6790 ft 246 kts 282°
2026-04-21 06:42 16.41106 -22.80066 6526 ft 246 kts 283°
2026-04-21 06:42 16.41527 -22.81793 6238 ft 246 kts 283°
2026-04-21 06:42 16.41946 -22.83512 5978 ft 242 kts 283°
2026-04-21 06:42 16.42355 -22.85188 5716 ft 235 kts 283°
2026-04-21 06:43 16.42750 -22.86810 5459 ft 226 kts 283°
2026-04-21 06:43 16.43129 -22.88367 5197 ft 217 kts 283°
2026-04-21 06:43 16.43488 -22.89843 4956 ft 209 kts 283°
2026-04-21 06:43 16.43839 -22.91284 4836 ft 203 kts 283°
2026-04-21 06:44 16.44198 -22.92714 4741 ft 205 kts 288°
2026-04-21 06:44 16.45065 -22.93879 4611 ft 213 kts 327°
2026-04-21 06:44 16.46519 -22.94296 4437 ft 221 kts 349°
2026-04-21 06:44 16.48036 -22.94529 4190 ft 219 kts 349°
2026-04-21 06:45 16.49049 -22.94641 4024 ft 215 kts 352°
2026-04-21 06:45 16.50498 -22.94716 3795 ft 207 kts 356°
2026-04-21 06:45 16.51907 -22.94741 3610 ft 196 kts 358°
2026-04-21 06:45 16.53223 -22.94752 3517 ft 185 kts 358°
2026-04-21 06:46 16.54495 -22.94761 3446 ft 182 kts 359°
2026-04-21 06:46 16.55743 -22.94770 3365 ft 181 kts 359°
2026-04-21 06:46 16.57019 -22.94780 3156 ft 185 kts
2026-04-21 06:46 16.58295 -22.94788 2906 ft 182 kts 360°
2026-04-21 06:47 16.59544 -22.94796 2679 ft 177 kts 360°
2026-04-21 06:47 16.60770 -22.94805 2434 ft 175 kts 360°
2026-04-21 06:47 16.61979 -22.94813 2213 ft 174 kts 359°
2026-04-21 06:47 16.63175 -22.94822 1982 ft 170 kts
2026-04-21 06:48 16.64331 -22.94830 1765 ft 160 kts 359°
2026-04-21 06:48 16.65396 -22.94837 1572 ft 147 kts 359°
2026-04-21 06:48 16.66398 -22.94845 1360 ft 143 kts
2026-04-21 06:48 16.67382 -22.94851 1175 ft 141 kts 360°
2026-04-21 06:49 16.68386 -22.94859 989 ft 147 kts
2026-04-21 06:49 16.69413 -22.94866 811 ft 147 kts 359°
2026-04-21 06:49 16.70430 -22.94877 612 ft 146 kts
2026-04-21 06:49 16.71432 -22.94881 426 ft 143 kts 360°
2026-04-21 06:50 16.72423 -22.94889 222 ft 141 kts
2026-04-21 06:50 16.73304 -22.94893 191 ft 100 kts 359°
2026-04-21 06:50 16.73778 -22.94897 188 ft 36 kts 359°
2026-04-21 06:50 16.74004 -22.94898 187 ft 31 kts 360°
2026-04-21 06:51 16.74177 -22.94896 189 ft 18 kts 10°
2026-04-21 06:51 16.74262 -22.94810 186 ft 17 kts 58°
2026-04-21 06:51 16.74271 -22.94794 190 ft 0 kts 58°
2026-04-21 06:52 16.74275 -22.94788 190 ft 3 kts 58°
2026-04-21 06:52 16.74297 -22.94744 187 ft 11 kts 81°
2026-04-21 06:52 16.74260 -22.94704 198 ft 0 kts 176°
2026-04-21 06:53 16.74259 -22.94704 198 ft 2 kts 176°
2026-04-21 06:53 16.74195 -22.94700 186 ft 15 kts 179°
2026-04-21 06:53 16.74072 -22.94699 186 ft 20 kts 180°
2026-04-21 06:53 16.73927 -22.94699 189 ft 21 kts 180°
2026-04-21 06:54 16.73784 -22.94698 186 ft 20 kts 180°
2026-04-21 06:54 16.73645 -22.94697 189 ft 20 kts 180°
2026-04-21 06:54 16.73511 -22.94697 189 ft 19 kts 179°
2026-04-21 06:54 16.73382 -22.94695 196 ft 18 kts 179°
2026-04-21 06:55 16.73258 -22.94694 196 ft 18 kts 179°
2026-04-21 06:55 16.73142 -22.94692 203 ft 14 kts 179°
2026-04-21 06:55 16.73071 -22.94661 198 ft 10 kts 112°
2026-04-21 06:55 16.73095 -22.94601 192 ft 10 kts 36°
2026-04-21 06:56 16.73153 -22.94565 190 ft 10 kts 48°
2026-04-21 06:56 16.73169 -22.94496 190 ft 10 kts 90°
2026-04-21 06:56 16.73169 -22.94489 190 ft 0 kts 90°